Tracking 25723 objects as of 27-Jun-2022
HD Live streaming from Space Station
objects crossing your sky now

KAITUO 1A

Track KAITUO 1A now!
10-day predictions
KAITUO 1A is classified as:


NORAD ID: 40904
Int'l Code: 2015-049F
Perigee: 509.8 km
Apogee: 528.3 km
Inclination: 97.5 °
Period: 94.9 minutes
Semi major axis: 6890 km
RCS: Unknown
Launch date: September 19, 2015
Source: People's Republic of China (PRC)
Launch site: Taiyaun Space Center, China (TSC)
aabbcc
Your satellite tracking list
Your tracking list is empty




NASA's NSSDC Master Catalog

Two Line Element Set (TLE):
1 40904U 15049F   22178.12251563  .00003639  00000-0  18207-3 0  9993
2 40904  97.4943 180.5454 0013390 345.4028  79.5268 15.17983704374336
Source of the keplerian elements: AFSPC